GZIYA EGBJ-EGBS

Flight info

Callsign GZIYA
Flight time 0h 18m
Altitude 1800
Route DCT
Aircraft PA24/L-SDGRY/S

Departure

Time 2026-05-06 09:42
Airport Gloucestershire Airport (EGBJ)

Arrival

Time 2026-05-06 10:00
Airport Shobdon Airfield (EGBS)
Time Latitude Longitude Altitude Speed Heading
2026-05-06 09:22 51.89134 -2.15844 90 ft 0 kts 257°
2026-05-06 09:35 51.89132 -2.15855 92 ft 5 kts 239°
2026-05-06 09:35 51.89117 -2.15792 91 ft 8 kts 153°
2026-05-06 09:35 51.89087 -2.15853 90 ft 14 kts 277°
2026-05-06 09:36 51.89077 -2.16073 88 ft 22 kts 264°
2026-05-06 09:36 51.89054 -2.16298 92 ft 17 kts 256°
2026-05-06 09:36 51.89031 -2.16457 95 ft 4 kts 253°
2026-05-06 09:36 51.88990 -2.16508 94 ft 12 kts 166°
2026-05-06 09:37 51.88930 -2.16498 94 ft 10 kts 185°
2026-05-06 09:37 51.88855 -2.16671 97 ft 16 kts 265°
2026-05-06 09:37 51.88857 -2.16714 97 ft 0 kts 270°
2026-05-06 09:41 51.88857 -2.16725 97 ft 6 kts 271°
2026-05-06 09:41 51.88879 -2.16793 96 ft 5 kts 18°
2026-05-06 09:41 51.89042 -2.16611 95 ft 60 kts 36°
2026-05-06 09:41 51.89476 -2.16183 235 ft 79 kts 28°
2026-05-06 09:42 51.90033 -2.16120 467 ft 91 kts 330°
2026-05-06 09:42 51.90354 -2.17004 835 ft 89 kts 304°
2026-05-06 09:42 51.90700 -2.17908 1070 ft 101 kts 306°
2026-05-06 09:42 51.91048 -2.18823 1360 ft 96 kts 306°
2026-05-06 09:43 51.91426 -2.19801 1503 ft 102 kts 308°
2026-05-06 09:43 51.91803 -2.20764 1691 ft 107 kts 308°
2026-05-06 09:43 51.92207 -2.21783 1842 ft 111 kts 308°
2026-05-06 09:43 51.92660 -2.22921 1827 ft 127 kts 309°
2026-05-06 09:44 51.93197 -2.24133 1802 ft 138 kts 312°
2026-05-06 09:44 51.93793 -2.25383 1798 ft 142 kts 313°
2026-05-06 09:44 51.94399 -2.26665 1807 ft 145 kts 311°
2026-05-06 09:44 51.95017 -2.27965 1803 ft 146 kts 312°
2026-05-06 09:45 51.95642 -2.29275 1804 ft 147 kts 311°
2026-05-06 09:45 51.96271 -2.30594 1803 ft 148 kts 313°
2026-05-06 09:45 51.96911 -2.31893 1803 ft 148 kts 313°
2026-05-06 09:45 51.97547 -2.33200 1803 ft 147 kts 312°
2026-05-06 09:46 51.98178 -2.34494 1802 ft 148 kts 312°
2026-05-06 09:46 51.98828 -2.35794 1804 ft 149 kts 313°
2026-05-06 09:46 51.99466 -2.37128 1805 ft 149 kts 311°
2026-05-06 09:46 52.00124 -2.38432 1805 ft 149 kts 313°
2026-05-06 09:47 52.00763 -2.39767 1781 ft 150 kts 311°
2026-05-06 09:47 52.01406 -2.41093 1793 ft 149 kts 313°
2026-05-06 09:47 52.02050 -2.42406 1792 ft 149 kts 311°
2026-05-06 09:47 52.02674 -2.43733 1797 ft 148 kts 311°
2026-05-06 09:48 52.03316 -2.45048 1785 ft 148 kts 312°
2026-05-06 09:48 52.03950 -2.46366 1784 ft 148 kts 312°
2026-05-06 09:48 52.04600 -2.47665 1785 ft 148 kts 312°
2026-05-06 09:48 52.05234 -2.48986 1783 ft 148 kts 312°
2026-05-06 09:49 52.05872 -2.50280 1787 ft 149 kts 311°
2026-05-06 09:49 52.06509 -2.51616 1784 ft 149 kts 311°
2026-05-06 09:49 52.07152 -2.52935 1784 ft 149 kts 313°
2026-05-06 09:49 52.07809 -2.54243 1782 ft 149 kts 312°
2026-05-06 09:50 52.08450 -2.55561 1783 ft 148 kts 312°
2026-05-06 09:50 52.09086 -2.56882 1787 ft 148 kts 312°
2026-05-06 09:50 52.09730 -2.58195 1791 ft 149 kts 313°
2026-05-06 09:50 52.10367 -2.59507 1792 ft 148 kts 311°
2026-05-06 09:51 52.11000 -2.60830 1792 ft 148 kts 312°
2026-05-06 09:51 52.11647 -2.62135 1792 ft 148 kts 312°
2026-05-06 09:51 52.12285 -2.63448 1792 ft 148 kts 311°
2026-05-06 09:51 52.12919 -2.64780 1793 ft 148 kts 311°
2026-05-06 09:52 52.13558 -2.66103 1796 ft 148 kts 311°
2026-05-06 09:52 52.13978 -2.66979 1792 ft 148 kts 312°
2026-05-06 09:52 52.14609 -2.68268 1664 ft 146 kts 311°
2026-05-06 09:52 52.15259 -2.69594 1376 ft 152 kts 312°
2026-05-06 09:53 52.15909 -2.70922 1308 ft 148 kts 310°
2026-05-06 09:53 52.16534 -2.72242 1313 ft 147 kts 311°
2026-05-06 09:53 52.17161 -2.73569 1315 ft 148 kts 311°
2026-05-06 09:53 52.17808 -2.74863 1311 ft 148 kts 311°
2026-05-06 09:54 52.18448 -2.76182 1308 ft 148 kts 310°
2026-05-06 09:54 52.19071 -2.77526 1309 ft 149 kts 310°
2026-05-06 09:54 52.19710 -2.78855 1312 ft 149 kts 310°
2026-05-06 09:54 52.20352 -2.80184 1309 ft 149 kts 311°
2026-05-06 09:55 52.20938 -2.81570 1303 ft 149 kts 293°
2026-05-06 09:55 52.20935 -2.83238 1306 ft 150 kts 255°
2026-05-06 09:55 52.20694 -2.84904 1308 ft 152 kts 262°
2026-05-06 09:55 52.20550 -2.86591 1309 ft 152 kts 264°
2026-05-06 09:56 52.20429 -2.88312 1310 ft 153 kts 264°
2026-05-06 09:56 52.20304 -2.90032 1310 ft 153 kts 265°
2026-05-06 09:56 52.20186 -2.91756 1306 ft 151 kts 264°
2026-05-06 09:56 52.20069 -2.93398 1315 ft 140 kts 264°
2026-05-06 09:57 52.20251 -2.94881 1300 ft 131 kts 305°
2026-05-06 09:57 52.20911 -2.95706 1293 ft 115 kts 345°
2026-05-06 09:57 52.21646 -2.95981 1298 ft 104 kts 354°
2026-05-06 09:57 52.22333 -2.96130 1302 ft 95 kts 357°
2026-05-06 09:58 52.22954 -2.96123 1309 ft 86 kts 21°
2026-05-06 09:58 52.23398 -2.95558 1303 ft 79 kts 55°
2026-05-06 09:58 52.23618 -2.94771 1297 ft 74 kts 73°
2026-05-06 09:58 52.23747 -2.93924 1315 ft 80 kts 74°
2026-05-06 09:59 52.23790 -2.92986 1258 ft 87 kts 89°
2026-05-06 09:59 52.23829 -2.91992 1059 ft 86 kts 79°
2026-05-06 09:59 52.23920 -2.91034 748 ft 86 kts 80°
2026-05-06 09:59 52.24003 -2.90107 546 ft 88 kts 81°
2026-05-06 10:00 52.24089 -2.89096 399 ft 87 kts 82°
2026-05-06 10:00 52.24159 -2.88231 317 ft 61 kts 85°
2026-05-06 10:00 52.24200 -2.87655 304 ft 28 kts 82°
2026-05-06 10:00 52.24241 -2.87472 302 ft 10 kts 353°
2026-05-06 10:01 52.24258 -2.87479 303 ft 0 kts 333°
2026-05-06 10:01 52.24318 -2.87547 309 ft 16 kts 301°
2026-05-06 10:02 52.24332 -2.87676 319 ft 19 kts 264°
2026-05-06 10:02 52.24317 -2.87901 319 ft 5 kts 270°
2026-05-06 10:02 52.24378 -2.87948 319 ft 12 kts 340°
2026-05-06 10:02 52.24378 -2.87980 319 ft 3 kts 161°
2026-05-06 10:03 52.24375 -2.87978 319 ft 0 kts 156°